Regional Weather Roundup
Issued by NWS Cleveland, OH

Home | Current Version | Previous Version | Graphics & Text | Print | Product List | Glossary On
Versions: 1 2 3 4 5 6 7 8 9 10 11 12 13 14 15 16 17 18 19 20 21 22 23 24 25 26 27 28 29 30 31 32 33 34 35 36 37 38 39 40 41 42 43 44 45 46 47 48 49 50
000
ASUS41 KCLE 020310
RWRCLE
OHIO REGIONAL WEATHER ROUNDUP
NATIONAL WEATHER SERVICE WILMINGTON, OH
1100 PM EDT MON SEP 01 2014

NOTE: "FAIR" INDICATES FEW OR NO CLOUDS BELOW 12,000 FEET WITH NO
SIGNIFICANT WEATHER AND/OR OBSTRUCTIONS TO VISIBILITY.

OHZ001>008-015>018-024>027-034-035-043-044-020400-
   NORTHWEST OHIO

CITY           SKY/WX    TMP DP  RH WIND       PRES   REMARKS
DEFIANCE       PTCLDY    76  68  76 SW7       29.87R
FINDLAY        CLEAR     75  70  84 SW9       29.88R
TOLEDO EXPRESS PTCLDY    75  70  84 SW7       29.86R
TOLEDO METCALF CLEAR     75  69  81 SW7       29.87R
LIMA           CLEAR     76  70  82 SW13      29.90R
$$

OHZ009>014-019>023-028>033-038-089-020400-
   NORTHEAST OHIO

CITY           SKY/WX    TMP DP  RH WIND       PRES   REMARKS
CLE-HOPKINS    MOCLDY    77  69  76 S7        29.91R
CLE-LAKEFRONT  MOCLDY    80  69  69 SW15G23   29.87R
CUY CO. ARPT   MOCLDY    79  72  78 SW9       29.90R
LORAIN-ELYRIA  MOCLDY    79  70  74 SW8       29.90R
ASHTABULA      CLOUDY    77  69  76 SW10      29.90S
AKRON-CANTON   MOCLDY    76  69  79 SW13      29.94R
WOOSTER        PTCLDY    74  71  91 S7        29.94R
MANSFIELD      MOCLDY    76  69  79 SW13      29.93R
YOUNGSTOWN     MOCLDY    75  70  84 S9        29.93S
$$

OHZ042-051>053-060>062-070>072-077>081-020400-
  SOUTHWEST OHIO

CITY           SKY/WX    TMP DP  RH WIND       PRES   REMARKS
CINC-COVINGTON PTCLDY    77  69  76 SW8       29.97R
CINC-LUNKEN    PTCLDY    77  70  79 SW9       29.95R
HAMILTON       CLEAR     74  72  93 VRB5      29.95S
DAYTON         PTCLDY    76  70  82 SW9       29.95S
WRIGHT-PAT AFB CLEAR     76  72  86 SW8       29.94R
DAYTON GENERAL CLEAR     76  71  85 SW7       29.95R
WILMINGTON     CLEAR     74  69  85 SW9       29.96R
$$

OHZ036-037-039>041-045>050-054>059-063>069-073>076-082>088-020400-
  CENTRAL AND SOUTHEAST OHIO

CITY           SKY/WX    TMP DP  RH WIND       PRES   REMARKS
COLUMBUS       PTCLDY    79  70  74 S7        29.94R
OSU AIRPORT    MOCLDY    76  70  82 SW9       29.94R
BOLTON FIELD   MOCLDY    73  72  95 S7        29.96R
RICKENBACK AFB MOCLDY    75  68  79 S8        29.95R
NEWARK         MOCLDY    75  70  84 SW6       29.95R
MARION         CLEAR     74  70  87 SW10      29.92R
LANCASTER      PTCLDY    76  70  82 S6        29.96R
ZANESVILLE     MOCLDY    73  69  87 S7        29.96S
NEW PHILLY     MOCLDY    74  70  87 VRB5      29.95S
$$


USA.gov is the U.S. government's official web portal to all federal, state and local government web resources and services.